Regional Weather Roundup
Issued by NWS

Home | Current Version | Previous Version | Text Only | Print | Product List | Glossary On
Versions: 1 2 3 4 5 6 7 8 9 10 11 12 13 14 15 16 17 18 19 20 21 22 23 24 25 26 27 28 29 30 31 32 33 34 35 36 37 38 39 40 41 42 43 44 45 46 47 48 49 50
000
ASUS46 KLOX 030313
RWRCA

SOUTHERN CALIFORNIA WEATHER ROUNDUP
NATIONAL WEATHER SERVICE OXNARD CALIFORNIA
800 PM PDT MON MAY 02 2016

NOTE: "FAIR" INDICATES FEW OR NO CLOUDS BELOW 12,000 FEET WITH NO
SIGNIFICANT WEATHER AND/OR OBSTRUCTIONS TO VISIBILITY.

  -  STATIONS PRECEEDED BY AN ASTERISK (*) ARE NOT NWS OR FAA
     STATIONS AND ARE NOT SUBJECT TO NWS AND FAA QUALITY CONTROL.

CAZ041-042-087-030400-
LA AND ORANGE COUNTY COASTAL AREAS


CITY           SKY/WX    TMP DP  RH WIND       PRES   REMARKS
L.A. DOWNTOWN  CLEAR     62  54  74 CALM      29.95R
L.A. AIRPORT   PTCLDY    59  53  80 W14       29.95S
LONG BEACH     CLEAR     62  55  77 NW9       29.96R

CITY           SKY/WX    TMP DP  RH WIND       PRES   REMARKS
FULLERTON      CLEAR     67  52  58 W5        29.94S
HAWTHORNE      CLEAR     61  54  77 W9        29.96R
*LOS ALAMITOS  FAIR      64  54  69 W7        29.96R
*REDONDO BEACH   N/A     60  54  82 SW5       29.96R
SANTA ANA      CLEAR     63  55  75 SW6       29.96R
STA MONICA APT CLEAR     60  54  80 S5        29.95R
*STA MON PIER    N/A     60  56  85 E6        29.88R
TORRANCE       PTCLDY    61  57  88 W6        29.97R
*UCLA            N/A     61  52  72 CALM      29.93R

$$

CAZ547-548-048-030400-
LA COUNTY VALLEYS AND INLAND EMPIRE


CITY           SKY/WX    TMP DP  RH WIND       PRES   REMARKS
BURBANK        CLEAR     72  49  44 SE7       29.94R
VAN NUYS       CLEAR     73  46  38 W6        29.94R

CITY           SKY/WX    TMP DP  RH WIND       PRES   REMARKS
CORONA AIRPORT CLEAR     70  54  56 W10       29.94
*CHATSWORTH      N/A     69  51  52 N3        29.95R
CHINO          PTCLDY    70  50  49 SW13      29.95R
*CLAREMONT       N/A     66  51  58 SW5         N/A
MARCH AFB      CLEAR     70  46  41 NW12      29.96R
*NORTHRIDGE      N/A     72  46  40 SW3         N/A
ONTARIO        PTCLDY    71  49  45 W12       29.94R
*PASADENA        N/A     68  55  64 CALM        N/A
POMONA         CLEAR     66  50  55 W12       29.98R
RIVERSIDE      CLEAR     72  48  42 W9        29.94R
SAN BERNARDINO PTCLDY    75  46  35 SW6       29.95R
*SAN GABRIEL     N/A     66  55  67 SW5       30.01R
*WHITEMAN AP   CLEAR     75  46  35 CALM      29.98R
*WHITTIER HILL   N/A     62  53  72 SW7         N/A
*WOODLAND HILL   N/A     72  46  40 SW6         N/A

$$

CAZ054-055-030400-
LA AND SAN BERNARDINO COUNTY MOUNTAINS


CITY           SKY/WX    TMP DP  RH WIND       PRES   REMARKS
*ACTON           N/A     68  45  44 W7          N/A
*BIG BEAR AIRP FAIR      48  32  53 CALM      30.18R
*BIG PINES       N/A     48  33  57 CALM        N/A
*CHILAO          N/A     54  37  52 SW3         N/A
SANDBERG       PTCLDY    62  41  46 S12       30.10R

$$

CAZ028-029-059-060-099-030400-
ANTELOPE VALLEY AND SURROUNDING AREAS


CITY           SKY/WX    TMP DP  RH WIND       PRES   REMARKS
LANCASTER      MOCLDY    72  43  35 SW13      29.99R
PALMDALE       MOCLDY    71  43  36 SW10      30.00R

CITY           SKY/WX    TMP DP  RH WIND       PRES   REMARKS
29 PALMS       PTCLDY    74  33  22 E6        30.04R
BARSTOW/DAGGET PTCLDY    74  36  25 NE7       29.98R
BISHOP         PTCLDY    67  27  22 E9        30.05R
CHINA LAKE     PTCLDY    73  30  20 E5        29.99R
EDWARDS AFB    PTCLDY    76  27  16 NE7       29.97R
MOJAVE         CLEAR     73  32  21 NE5       30.01R
NEEDLES        CLEAR     82  36  19 N6        29.92R
VICTORVILLE    PTCLDY    72  30  21 E3        30.01R

$$

CAZ039-040-030400-
VENTURA AND SANTA BARBARA COUNTY COAST


CITY           SKY/WX    TMP DP  RH WIND       PRES   REMARKS
CAMARILLO      PTCLDY    59  52  77 W3        29.98R
NWS OXNARD       N/A     58  53  81 W3        29.97R
OXNARD AIRPORT CLEAR     57  54  89 W12       29.97R
*POINT MUGU    PTCLDY    57  53  86 NW6       29.98S
SBA APT/GOLETA CLEAR     57  53  86 W6        29.97S
*SANTA BARBARA   N/A     61  51  71 NE2       30.04S
*VENTURA         N/A     58  54  87 SW2       29.95R

$$

CAZ044-045-030400-
VENTURA COUNTY VALLEYS


CITY           SKY/WX    TMP DP  RH WIND       PRES   REMARKS
*SIMI VALLEY     N/A     63  53  70 CALM      29.93R
*WESTLAKE VILL   N/A     61  51  70 CALM      29.96R
*OJAI            N/A     65  51  60 CALM      29.90R
*FILLMORE        N/A     65  54  67 CALM      29.86R

$$

CAZ053-030400-
VENTURA COUNTY MOUNTAINS


CITY           SKY/WX    TMP DP  RH WIND       PRES   REMARKS
*LOCKWOOD VLY    N/A     59  37  44 CALM        N/A
*ROSE VALLEY     N/A     63  46  55 MISG        N/A

$$

CAZ034-035-036-030400-
CENTRAL COAST AND SANTA YNEZ VALLEY


CITY           SKY/WX    TMP DP  RH WIND       PRES   REMARKS
SAN LUIS OBISP CLOUDY    58  52  80 NW12      30.01R
SANTA MARIA    MOCLDY    57  51  80 NW9       30.03R

CITY           SKY/WX    TMP DP  RH WIND       PRES   REMARKS
*CAL POLY SLO    N/A     55  54  94 W5G10       N/A
*LOMPOC        CLEAR     56  51  84 W8        30.03R
*PISMO BEACH     N/A     57  54  88 NE3       30.02S
*SANTA YNEZ    FAIR      59  50  72 W7        30.00R

$$

CAZ037-038-051-030400-
SAN LUIS OBISPO COUNTY INTERIOR AND CUYAMA VALLEY


CITY           SKY/WX    TMP DP  RH WIND       PRES   REMARKS
*CUYAMA          N/A     66  47  49 W5        29.92R
PASO ROBLES    MOCLDY    61  50  67 S9G31     29.98R

$$

CAZ032-033-061-030400-
SOUTHERN DESERTS


CITY           SKY/WX    TMP DP  RH WIND       PRES   REMARKS
BLYTHE         CLEAR     84  38  19 CALM      29.88R
IMPERIAL       CLEAR     82  44  26 W5        29.85R
PALM SPRINGS   PTCLDY    85  39  19 CALM      29.90R
THERMAL        PTCLDY    77  46  33 SE3       29.84R

$$

ELSEWHERE ACROSS THE WESTERN UNITED STATES AND MEXICO


CITY           SKY/WX    TMP DP  RH WIND       PRES   REMARKS
DENVER, CO     PTCLDY    52  22  30 NW3       30.13R
GRAND CANYON,  PTCLDY    43  36  76 CALM      30.21R
HONOLULU, HI   MOSUNNY   82  63  51 NE16G24   30.05S
KAHULUI, MAUI  MOSUNNY   81  66  61 NE24G30   30.05S
LAKE TAHOE, CA PTCLDY    48  37  65 CALM      30.15S
LAS VEGAS, NV  PTCLDY    76  34  21 NE12      29.97R
MAMMOTH LAKES, FAIR      49  29  45 N9        30.19R
MEXICO CITY, M MOCLDY    72  52  49 N13       30.27R
PHOENIX, AZ    PTCLDY    83  34  17 NW9G18    29.87R
PORTLAND, OR   MOCLDY    76  45  33 N7        29.90R
RENO, NV       MOCLDY    67  32  27 W6        30.07R
SALT LAKE CITY CLEAR     59  33  37 N7        30.15R
SAN DIEGO, CA  PTCLDY    64  55  72 NW8       29.99R
SAN FRANCISCO, MOCLDY    54  51  90 W16       30.01R
SAN JOSE, CA   MOCLDY    61  51  70 NW8       30.01R
SEATTLE, WA    PTCLDY    75  45  34 SW8G18    29.91R
TIJUANA, MEX   CLEAR     61  52  72 S8        29.99S

$$

STATION/POSITION TIME  TEMP    WIND        PRES    VSBY  WAVE
                       AIR SEA DIR/SP/G                  HT/PER
                 (UTC) (F)     (DEG/KT/KT) (MB)    (MI)  (FT/S)
POINT ARGUELLO B NOT AVBL
WEST SANTA BARBA 0250   56 57  310/ 19/ 23 1014.8F         5/11
POINT CONCEPTION NOT AVBL
EAST SANTA BARBA 0300   56 56  260/ 12/ 16 1015.3F
SANTA MONICA BAY 0250   59 61  310/ 16/ 17 1014.6R         3/15


USA.gov is the U.S. government's official web portal to all federal, state and local government web resources and services.